Friday Harbor, WA

12:01 PM PDT on June 22, 2017 (GMT -0700)
Friday Harbor

Weather History for KFHR - August, 2013

Change the Weather History Date:

Thursday, August 1, 2013

  Actual Average Record
Temperature  
Mean Temperature 58 °F -  
Max Temperature 68 °F 70 °F 84 °F (2015)
Min Temperature 51 °F 48 °F 45 °F (2002)
Degree Days  
Heating Degree Days 6    
Growing Degree Days 8 (Base 50)    
Moisture  
Dew Point 52 °F    
Average Humidity 84    
Maximum Humidity 100    
Minimum Humidity 61    
Precipitation  
Precipitation 0.00 in - - ()
Sea Level Pressure  
Sea Level Pressure 30.05 in    
Wind  
Wind Speed 5 mph (South)    
Max Wind Speed 13 mph    
Max Gust Speed 21 mph    
Visibility 10 miles    
Events      
Averages and records for this station are not official NWS values.
T = Trace of Precipitation, MM = Missing Value Source: NWS Daily Summary

Daily Weather History Graph

Daily Weather History Graph

Search for Another Location

Airport or City:

Trip Planner

Search our weather history database for the weather conditions in past years. The results will help you decide how hot, cold, wet, or windy it might be!

Date:

Astronomy

Aug. 01, 2013 Rise Set
Actual Time 5:47 AM PDT 8:48 PM PDT
Civil Twilight 5:10 AM PDT 9:25 PM PDT
Nautical Twilight 4:22 AM PDT 10:13 PM PDT
Astronomical Twilight 3:22 AM PDT 11:11 PM PDT
Moon 1:24 AM PDT (8/1) 5:05 PM PDT (8/1)
Length of Visible Light 16h 15m
Length of Day
15h 01m
Waning Crescent, 22% of the Moon is Illuminated
Aug 1
Waning Crescent
Aug 6
New
Aug 14
First Quarter
Aug 20
Full
Aug 28
Last Quarter

Hourly Weather History & Observations

Time (PDT) Temp. Dew Point Humidity Pressure Visibility Wind Dir Wind Speed Gust Speed Precip Events Conditions
12:53 AM 53.1 °F 51.1 °F 93% 30.04 in 10.0 mi Calm Calm - N/A   Clear
1:53 AM 51.1 °F 50.0 °F 96% 30.04 in 10.0 mi Calm Calm - N/A   Clear
2:53 AM 51.1 °F 50.0 °F 96% 30.04 in 10.0 mi Calm Calm - N/A   Clear
3:24 AM 51.8 °F 50.0 °F 94% 30.04 in 10.0 mi ESE 4.6 mph - N/A   Scattered Clouds
3:33 AM 51.8 °F 51.8 °F 100% 30.04 in 9.0 mi SE 4.6 mph - N/A   Mostly Cloudy
3:53 AM 52.0 °F 51.1 °F 97% 30.04 in 8.0 mi SE 3.5 mph - N/A   Overcast
4:44 AM 51.8 °F 50.0 °F 94% 30.04 in 9.0 mi Calm Calm - N/A   Scattered Clouds
4:53 AM 51.1 °F 50.0 °F 96% 30.04 in 10.0 mi SSE 3.5 mph - N/A   Partly Cloudy
5:29 AM 51.8 °F 51.8 °F 100% 30.04 in 10.0 mi SSW 8.1 mph - N/A   Mostly Cloudy
5:53 AM 52.0 °F 51.1 °F 97% 30.04 in 10.0 mi SSW 10.4 mph - N/A   Scattered Clouds
6:12 AM 51.8 °F 51.8 °F 100% 30.04 in 10.0 mi SSW 10.4 mph - N/A   Mostly Cloudy
6:53 AM 53.1 °F 52.0 °F 96% 30.06 in 10.0 mi SSW 10.4 mph 17.3 mph N/A   Overcast
7:28 AM 53.6 °F 51.8 °F 94% 30.06 in 10.0 mi SW 8.1 mph - N/A   Overcast
7:37 AM 53.6 °F 51.8 °F 94% 30.06 in 10.0 mi SW 8.1 mph - N/A   Overcast
7:53 AM 54.0 °F 52.0 °F 93% 30.06 in 10.0 mi SSW 9.2 mph 17.3 mph N/A   Overcast
8:53 AM 55.9 °F 53.1 °F 90% 30.06 in 10.0 mi SSW 6.9 mph - N/A   Overcast
9:53 AM 57.0 °F 52.0 °F 83% 30.06 in 10.0 mi SSW 10.4 mph - N/A   Overcast
10:53 AM 57.9 °F 52.0 °F 81% 30.06 in 10.0 mi SSW 8.1 mph - N/A   Overcast
11:42 AM 59.0 °F 51.8 °F 77% 30.07 in 10.0 mi South 10.4 mph - N/A   Overcast
11:53 AM 62.1 °F 53.1 °F 72% 30.06 in 10.0 mi SSW 11.5 mph - N/A   Mostly Cloudy
12:53 PM 62.1 °F 52.0 °F 70% 30.06 in 10.0 mi SSW 12.7 mph 16.1 mph N/A   Overcast
1:38 PM 62.6 °F 53.6 °F 72% 30.05 in 10.0 mi South 10.4 mph - N/A   Mostly Cloudy
1:53 PM 64.0 °F 53.1 °F 67% 30.05 in 10.0 mi South 8.1 mph - N/A   Scattered Clouds
2:53 PM 63.0 °F 53.1 °F 70% 30.05 in 10.0 mi SE 9.2 mph 16.1 mph N/A   Clear
3:53 PM 64.9 °F 53.1 °F 65% 30.04 in 10.0 mi SSE 8.1 mph - N/A   Clear
4:53 PM 66.9 °F 53.1 °F 61% 30.03 in 10.0 mi South 9.2 mph 17.3 mph N/A   Clear
5:53 PM 66.0 °F 54.0 °F 65% 30.03 in 10.0 mi South 8.1 mph - N/A   Clear
6:53 PM 61.0 °F 52.0 °F 72% 30.03 in 10.0 mi South 8.1 mph - N/A   Overcast
7:53 PM 61.0 °F 53.1 °F 75% 30.03 in 10.0 mi South 8.1 mph - N/A   Clear
8:53 PM 60.1 °F 53.1 °F 78% 30.03 in 10.0 mi SSW 8.1 mph 17.3 mph N/A   Scattered Clouds
9:53 PM 57.9 °F 52.0 °F 81% 30.04 in 10.0 mi SSW 8.1 mph - N/A   Clear
10:53 PM 57.9 °F 52.0 °F 81% 30.04 in 10.0 mi SSW 9.2 mph - N/A   Mostly Cloudy
11:53 PM 59.0 °F 52.0 °F 78% 30.04 in 10.0 mi SSW 9.2 mph 20.7 mph N/A   Overcast